Regional Weather Roundup
Issued by NWS

Home | Current Version | Previous Version | Text Only | Print | Product List | Glossary On
Versions: 1 2 3 4 5 6 7 8 9 10 11 12 13 14 15 16 17 18 19 20 21 22 23 24 25 26 27
000
ASUS45 KTFX 241010
RWRMT
MONTANA REGIONAL WEATHER ROUNDUP
NATIONAL WEATHER SERVICE GREAT FALLS MT
400 AM MDT THU AUG 24 2017

NOTE: "FAIR" INDICATES FEW OR NO CLOUDS BELOW 12000 FEET WITH NO
SIGNIFICANT WEATHER AND/OR OBSTRUCTIONS TO VISIBILITY.

MTZ001>007-043-241100-
WEST OF THE DIVIDE

CITY           SKY/WX    TMP DP  RH WIND       PRES   REMARKS
KALISPELL        N/A     61  46  57 N3        29.90S
MISSOULA         N/A     65  45  48 N7        29.93R HAZE
BUTTE          CLEAR     53  38  56 S5        30.08S
MULLAN PASS      N/A     60  38  43 CALM      30.10S
ANACONDA         N/A     57  37  47 S6        30.03S
DEER LODGE       N/A     55  39  54 CALM      30.02F
EUREKA           N/A     70  43  37 MISG      29.87S
HAMILTON         N/A     61  45  55 CALM      29.95S
LIBBY            N/A     64  46  52 CALM      29.87F
RONAN            N/A     60  49  67 MISG      29.97S
$$

MTZ008-052>055-241100-
SOUTHWEST MONTANA

CITY           SKY/WX    TMP DP  RH WIND       PRES   REMARKS
BOZEMAN        CLOUDY    61  46  57 S5        30.00F
DILLON         PTCLDY    59  44  57 S10       30.05F
W YELLOWSTONE  CLOUDY    46  46 100 CALM      30.19S
ENNIS          CLOUDY    64  46  52 S8        30.12S
THREE FORKS      N/A     54  44  68 CALM      29.99S
$$

MTZ009-010-012-014-046-048-049-054-241100-
EAST SLOPES AND CENTRAL MONTANA

CITY           SKY/WX    TMP DP  RH WIND       PRES   REMARKS
CUT BANK         N/A     73  37  27 W15       29.88F
GREAT FALLS    PTCLDY    62  37  39 S6        29.90S
MALMSTROM AFB  PTCLDY    66  38  35 CALM      29.90R
HELENA         PTCLDY    66  41  40 CALM      29.95R
AUGUSTA        MOCLDY    67  38  33 SE5       29.95R
BOWMANS CRNR     N/A     68  34  28 S7        29.93S
CHOTEAU          N/A     72  41  33 S5        29.93R
FAIRFIELD      MOCLDY    71  39  32 S7        29.90S
POWER          MOCLDY    67  36  30 SE6       29.90S
RAYNESFORD       N/A     63  36  36 E6        29.93F
ULM              N/A     66  35  32 E6        29.90F
$$

MTZ011-013-016-021-045-047-050-051-241100-
NORTH CENTRAL MONTANA

CITY           SKY/WX    TMP DP  RH WIND       PRES   REMARKS
HAVRE          PTCLDY    57  40  52 CALM      29.83S
LEWISTOWN      CLEAR     56  33  42 SE3       29.95R
N BAR RANCH      N/A     59  34  38 W7        29.99F
CHINOOK          N/A     63  41  45 E7        29.83S
DENTON           N/A     63  34  34 S9        29.87F
GEYSER           N/A     65  35  31 SW9       29.93S
GRASS RANGE      N/A     62  33  34 W5        29.89F
JUDITH GAP       N/A     59  33  37 S9        29.98S
WINIFRED       MOCLDY    68  33  27 SE10      29.90S
$$

MTZ017>020-022>027-061-062-241100-
NORTHEAST MONTANA

CITY           SKY/WX    TMP DP  RH WIND       PRES   REMARKS
GLASGOW        CLEAR     63  48  58 E16       29.87F
JORDAN           N/A     70  41  34 E6        29.87S
SIDNEY         CLEAR     58  52  80 NE8       29.94
WOLF POINT     CLEAR     60  50  69 E9        29.92S
MALTA          PTCLDY    63  43  48 NE7       29.85S
PLENTYWOOD       N/A     55  52  88 E10       29.96S
POPLAR           N/A     57  52  82 NE5       29.93S
$$

MTZ028>42-056>058-241100-
SOUTHCENTRAL AND SOUTHEAST MONTANA

CITY           SKY/WX    TMP DP  RH WIND       PRES   REMARKS
BAKER          CLEAR     63  54  72 SE12      29.97F
BILLINGS       CLOUDY    70  37  29 S5        29.91S
LIVINGSTON     CLOUDY    69  42  37 W8        29.99F
MILES CITY     CLEAR     71  53  52 S7        29.90S
BIG TIMBER     PTCLDY    68  41  37 N5        30.00R
HARLOWTON        N/A     56  33  42 MISG      29.97S
LAUREL           N/A     70  39  32 CALM      29.91F
$$

REGIONAL REPORTS...DAKOTAS

CITY           SKY/WX    TMP DP  RH WIND       PRES   REMARKS
WILLISTON      CLEAR     58  54  86 NE7       29.96S
MINOT          CLEAR     54  50  86 E12       30.00F
DICKINSON      CLEAR     58  56  93 S8        29.95S
BEACH          MOCLDY    61  57  88 S8        29.99S
CROSBY         CLOUDY    54  54 100 E10G16    30.00S
TIOGA            N/A     50  50 100 E7        30.00S
WATFORD CITY     N/A     55  54  94 VRB6G12   29.96S
BISMARCK       CLEAR     57  55  93 E13       29.99R
GRAND FORKS    CLEAR     52  51  97 NE7       30.10S
FARGO          CLOUDY    56  55  97 E5        30.07S
BUFFALO SD       N/A     60  57  89 SE5       29.93S
RAPID CITY     CLEAR     58  54  86 N5        30.00S
$$

REGIONAL REPORTS...WYOMING/IDAHO/WASHINGTON

CITY           SKY/WX    TMP DP  RH WIND       PRES   REMARKS
GILLETTE       CLOUDY    65  46  50 E13       29.98R
SHERIDAN       PTCLDY    54  42  64 S6        29.95S
BUFFALO WY     CLEAR     67  34  29 NW6       30.02F
CODY           PTCLDY    65  43  44 SW5       30.03S
YELLOWSTONE LA   N/A     47  47 100 NW3       30.28F
IDAHO FALLS    CLEAR     49  47  93 N5        30.09S
SALMON         CLEAR     61  45  55 CALM      30.00R
BOISE            N/A     70  53  54 SE9       29.94S
SPOKANE        CLOUDY    71  51  49 S12       29.89F
$$

REGIONAL REPORTS...ALBERTA

CITY           SKY/WX    TMP DP  RH WIND       PRES   REMARKS
EDMONTON       CLEAR     57  55  94 E8        29.75R
CALGARY        CLEAR     63  52  67 NW12      29.79F
LETHBRIDGE     MOCLDY    66  39  37 SW8       29.82S
MEDICINE HAT   CLEAR     59  43  55 S2        29.77S
$$

REGIONAL REPORTS...SASKATCHEWAN

CITY           SKY/WX    TMP DP  RH WIND       PRES   REMARKS
SWIFT CURRENT  CLEAR     61  48  63 SE13G18   29.86F
REGINA         PTCLDY    54  50  87 SE16G23   29.99F
SASKATOON      MOCLDY    57  50  77 SE21G29   29.94F
$$




USA.gov is the U.S. government's official web portal to all federal, state and local government web resources and services.